Location: �perlecques
(50.8057°N, 2.1521°E)
Time: 01:12:44
(UTC+00:00)

Vanguard 1 Rocket - Pass Details

Date: 09 August 2021
Orbit: 650 x 4226 km, 34.3° (Epoch: 25 September)

Event Time Altitude Azimuth Distance (km) Brightness Sun altitude
Rises 14:21:01 0° 273° (W) 6,571 12.3 44.5°
Reaches altitude 10° 14:30:27 10° 245° (WSW) 4,441 12.0 43.3°
Maximum altitude 14:32:57 11° 232° (SW) 4,046 11.8 43.0°
Drops below altitude 10° 14:35:12 10° 219° (SW) 3,828 11.6 42.7°
Sets 14:40:57 0° 184° (S) 4,054 11.1 41.9°
